SCP
0 -0 0 0 -0 -0 -0 -0 -0 -0 -0 -0 0 0 0 0 0 0 0 0 0 0 0 0 0 0 0 0 0 0 0 0
0 0 -0 0 -0 -0 -0 -0 -0 -0 -0 -0 0 0 0 0 0 0 0 0 0 0 0 0 0 0 0 0 0 0 0 0
0 0 -0 -0 0 -0 -0 -0 -0 -0 -0 -0 0 0 0 0 0 0 0 0 0 0 0 0 0 0 0 0 0 0 0 0
0 0 0 -0 0 0 -0 -0 -0 -0 -0 -0 0 0 0 0 0 0 0 0 0 0 0 0 0 0 0 0 0 0 0 0
0 0 0 0 0 0 0 -0 -0 -0 -0 -0 -0 0 0 0 0 0 0 0 0 0 0 0 0 0 0 0 0 0 0 0
0 0 0 0 0 0 0 0 0 -0 -0 -0 0 0 0 0 0 0 0 0 0 0 0 0 0 0 1 0 0 0 0 0
0 0 0 0 0 0 0 0 0 0 0 0 0 0 0 0 0 0 0 0 0 0 0 0 1 1 0 0 0 0 0 0
0 0 0 0 0 0 0 0 0 0 0 0 0 0 0 0 0 0 0 0 0 0 0 0 1 1 1 0 0 0 0 0
0 1 0 0 0 0 0 0 0 0 0 0 0 0 0 0 0 0 0 0 0 0 0 0 0 0 1 0 0 0 0 0
1 2 1 0 0 0 0 0 0 0 0 0 0 0 0 0 0 0 0 0 0 0 0 0 0 0 0 0 0 0 0 0
0 2 1 1 0 0 0 0 0 0 0 0 0 0 0 0 0 0 0 0 0 0 0 0 0 0 0 0 0 0 0 0
0 0 1 1 0 0 0 0 0 0 0 0 0 0 0 0 0 0 0 0 0 0 0 0 0 0 0 0 0 0 0 0
0 0 0 1 1 1 0 0 0 0 0 0 0 0 0 0 0 0 0 0 0 0 0 0 0 0 0 0 0 0 0 0
0 0 0 0 0 1 2 1 1 1 1 1 1 1 0 0 0 0 0 0 0 0 0 0 0 0 0 0 0 0 0 0
0 0 0 0 0 0 1 2 2 2 1 1 1 1 1 1 1 0 1 0 0 0 0 0 0 0 0 0 0 0 0 0
0 0 0 0 1 6 8 6 5 3 3 2 1 1 1 2 2 1 1 1 0 0 0 0 0 0 0 0 0 0 0 0
0 0 0 0 3 8 6 6 5 4 2 2 2 1 1 2 3 2 1 1 1 1 0 0 0 0 0 0 0 0 0 0
0 0 0 0 3 6 5 4 0 0 0 0 0 0 0 1 3 3 2 2 1 1 1 0 0 0 0 0 0 0 0 0
0 0 0 0 2 3 1 0 0 0 0 0 0 1 1 2 3 3 2 2 2 1 1 0 0 0 0 0 0 0 0 0
Wind_Speed_500mb
80 79 80 77 70 61 56 51 47 43 40 38 34 30 27 24 22 21 19 16 15 12 9 8 6 3 2 2 5 7 9 12
82 81 79 76 67 58 55 51 46 42 38 35 34 32 29 26 24 23 21 20 19 16 15 13 12 9 7 7 4 1 3 7
85 83 78 73 65 59 55 51 46 42 39 37 35 32 31 29 27 26 25 24 23 23 20 20 19 17 16 14 10 5 1 3
83 81 77 72 65 57 54 50 45 42 40 39 37 34 32 31 30 30 30 31 30 29 27 27 26 24 24 22 15 10 6 5
84 79 77 72 67 62 57 52 47 42 41 40 38 37 36 36 36 36 36 38 38 37 35 35 34 33 31 29 24 16 12 8
82 78 75 73 69 65 60 54 51 45 43 42 41 41 42 43 43 42 43 43 44 43 42 41 41 40 38 34 31 23 18 12
82 81 77 74 70 66 63 58 54 49 46 46 45 45 46 45 46 47 47 48 49 49 50 49 48 48 46 42 36 31 25 15
81 76 77 74 70 68 65 61 57 52 47 47 47 48 47 49 51 53 53 54 55 52 58 56 55 56 53 49 41 38 29 23
76 76 78 78 73 70 66 61 57 54 50 50 48 47 50 52 53 58 57 56 57 54 62 59 59 58 57 54 48 42 36 31
73 77 82 85 78 70 66 63 60 57 52 47 43 44 48 51 51 53 50 49 52 49 55 52 52 49 49 49 50 47 41 36
76 85 82 81 79 67 62 57 48 46 44 46 45 45 44 47 49 45 42 43 44 38 45 43 40 37 35 36 39 39 32 29
46 66 82 75 68 64 60 44 36 37 38 46 45 45 46 47 49 46 45 46 43 38 40 40 36 35 37 33 28 28 30 24
43 42 37 63 70 61 57 60 49 50 45 48 49 52 50 49 53 55 50 54 47 43 42 42 39 39 38 36 29 29 32 31
53 57 75 59 68 60 66 58 55 52 49 52 56 62 55 52 55 60 56 56 57 50 49 45 41 44 40 37 37 37 34 36
53 61 70 76 71 54 48 59 61 56 53 58 63 64 59 57 60 60 59 61 61 56 56 49 47 45 46 40 35 37 41 39
77 62 79 98 96 81 92 82 75 66 68 70 67 61 58 60 61 58 61 65 62 58 57 47 45 52 48 39 35 36 43 44
85 81 69 89 87 93 93 82 81 71 72 69 68 61 57 61 63 60 63 64 58 57 54 47 48 52 48 45 42 39 38 47
81 78 58 66 84 94 91 83 82 76 75 69 70 63 61 63 60 57 52 49 54 53 51 48 53 48 48 46 47 41 15 28
82 72 77 57 82 93 88 84 83 79 74 62 62 65 67 64 55 55 52 48 49 48 47 47 49 47 43 45 47 48 43 36
Wind_Direction_500mb
166 172 171 168 168 162 165 168 172 177 179 178 177 179 181 184 187 190 196 197 205 195 191 209 210 189 197 110 130 129 134 157
169 173 173 171 172 168 172 175 178 183 190 191 191 190 194 200 205 208 211 213 220 220 220 228 237 236 250 257 252 162 121 160
172 174 174 173 177 176 178 182 186 192 197 204 208 208 208 212 216 222 226 230 231 233 232 238 244 247 249 252 253 271 279 177
177 176 176 177 180 183 183 186 191 199 206 211 218 223 227 228 228 232 236 240 240 242 242 244 247 251 254 256 255 259 259 248
181 180 181 183 184 187 189 192 196 204 211 218 224 230 235 239 240 241 243 245 246 246 247 247 249 250 251 254 259 254 250 257
185 187 189 190 191 193 194 197 200 206 217 223 228 233 238 242 246 247 250 251 250 251 251 250 251 252 253 252 256 256 247 257
191 193 197 198 198 199 200 201 205 208 217 226 232 237 242 247 251 254 256 255 254 254 256 253 253 253 253 254 255 256 252 249
200 199 203 205 207 206 208 207 210 213 220 230 237 243 250 252 254 258 259 258 257 257 258 256 256 256 257 258 257 259 257 241
200 203 209 212 210 211 215 215 217 222 225 235 244 251 255 257 258 261 263 264 265 262 262 261 261 261 262 263 262 261 259 249
213 207 207 209 210 212 218 220 224 228 233 239 240 248 254 260 263 263 263 267 268 265 264 262 260 260 263 267 265 262 263 259
223 215 215 213 211 210 218 217 222 228 235 241 244 251 257 265 265 260 259 266 270 270 269 267 258 259 264 274 273 258 253 259
200 214 226 222 211 206 215 217 229 241 242 247 251 258 258 261 267 270 271 274 276 278 274 266 257 254 254 263 263 253 242 250
209 214 197 224 216 213 231 244 246 242 250 253 260 257 254 257 268 274 276 283 277 275 272 267 261 256 256 256 257 254 245 239
233 231 212 208 217 236 239 240 237 238 249 259 264 259 253 259 266 271 276 282 279 270 267 266 259 253 254 258 265 265 254 242
262 231 203 197 216 214 227 229 232 237 244 252 257 256 255 259 265 268 270 272 275 265 262 258 252 250 255 260 264 261 255 247
263 255 240 231 232 234 218 224 226 224 232 238 242 245 248 252 259 267 266 265 267 259 259 256 252 247 252 254 253 243 242 249
258 256 245 235 232 224 219 222 226 234 238 244 250 245 252 263 267 268 267 266 265 257 249 244 239 238 240 246 240 237 240 255
253 247 254 237 231 215 217 221 222 224 232 237 245 252 260 266 268 261 262 261 259 253 247 249 241 233 236 240 244 240 236 248
244 247 252 245 228 223 221 217 222 221 230 242 258 269 270 263 263 258 258 254 254 248 243 249 236 235 237 239 243 245 240 249
Wind_Speed_850mb
80 79 80 77 70 61 56 51 47 43 40 38 34 30 27 24 22 21 19 16 15 12 9 8 6 3 2 2 5 7 9 12
82 81 79 76 67 58 55 51 46 42 38 35 34 32 29 26 24 23 21 20 19 16 15 13 12 9 7 7 4 1 3 7
85 83 78 73 65 59 55 51 46 42 39 37 35 32 31 29 27 26 25 24 23 23 20 20 19 17 16 14 10 5 1 3
83 81 77 72 65 57 54 50 45 42 40 39 37 34 32 31 30 30 30 31 30 29 27 27 26 24 24 22 15 10 6 5
84 79 77 72 67 62 57 52 47 42 41 40 38 37 36 36 36 36 36 38 38 37 35 35 34 33 31 29 24 16 12 8
82 78 75 73 69 65 60 54 51 45 43 42 41 41 42 43 43 42 43 43 44 43 42 41 41 40 38 34 31 23 18 12
82 81 77 74 70 66 63 58 54 49 46 46 45 45 46 45 46 47 47 48 49 49 50 49 48 48 46 42 36 31 25 15
81 76 77 74 70 68 65 61 57 52 47 47 47 48 47 49 51 53 53 54 55 52 58 56 55 56 53 49 41 38 29 23
76 76 78 78 73 70 66 61 57 54 50 50 48 47 50 52 53 58 57 56 57 54 62 59 59 58 57 54 48 42 36 31
73 77 82 85 78 70 66 63 60 57 52 47 43 44 48 51 51 53 50 49 52 49 55 52 52 49 49 49 50 47 41 36
76 85 82 81 79 67 62 57 48 46 44 46 45 45 44 47 49 45 42 43 44 38 45 43 40 37 35 36 39 39 32 29
46 66 82 75 68 64 60 44 36 37 38 46 45 45 46 47 49 46 45 46 43 38 40 40 36 35 37 33 28 28 30 24
43 42 37 63 70 61 57 60 49 50 45 48 49 52 50 49 53 55 50 54 47 43 42 42 39 39 38 36 29 29 32 31
53 57 75 59 68 60 66 58 55 52 49 52 56 62 55 52 55 60 56 56 57 50 49 45 41 44 40 37 37 37 34 36
53 61 70 76 71 54 48 59 61 56 53 58 63 64 59 57 60 60 59 61 61 56 56 49 47 45 46 40 35 37 41 39
77 62 79 98 96 81 92 82 75 66 68 70 67 61 58 60 61 58 61 65 62 58 57 47 45 52 48 39 35 36 43 44
85 81 69 89 87 93 93 82 81 71 72 69 68 61 57 61 63 60 63 64 58 57 54 47 48 52 48 45 42 39 38 47
81 78 58 66 84 94 91 83 82 76 75 69 70 63 61 63 60 57 52 49 54 53 51 48 53 48 48 46 47 41 15 28
82 72 77 57 82 93 88 84 83 79 74 62 62 65 67 64 55 55 52 48 49 48 47 47 49 47 43 45 47 48 43 36
Wind_Direction_850mb
166 172 171 168 168 162 165 168 172 177 179 178 177 179 181 184 187 190 196 197 205 195 191 209 210 189 197 110 130 129 134 157
169 173 173 171 172 168 172 175 178 183 190 191 191 190 194 200 205 208 211 213 220 220 220 228 237 236 250 257 252 162 121 160
172 174 174 173 177 176 178 182 186 192 197 204 208 208 208 212 216 222 226 230 231 233 232 238 244 247 249 252 253 271 279 177
177 176 176 177 180 183 183 186 191 199 206 211 218 223 227 228 228 232 236 240 240 242 242 244 247 251 254 256 255 259 259 248
181 180 181 183 184 187 189 192 196 204 211 218 224 230 235 239 240 241 243 245 246 246 247 247 249 250 251 254 259 254 250 257
185 187 189 190 191 193 194 197 200 206 217 223 228 233 238 242 246 247 250 251 250 251 251 250 251 252 253 252 256 256 247 257
191 193 197 198 198 199 200 201 205 208 217 226 232 237 242 247 251 254 256 255 254 254 256 253 253 253 253 254 255 256 252 249
200 199 203 205 207 206 208 207 210 213 220 230 237 243 250 252 254 258 259 258 257 257 258 256 256 256 257 258 257 259 257 241
200 203 209 212 210 211 215 215 217 222 225 235 244 251 255 257 258 261 263 264 265 262 262 261 261 261 262 263 262 261 259 249
213 207 207 209 210 212 218 220 224 228 233 239 240 248 254 260 263 263 263 267 268 265 264 262 260 260 263 267 265 262 263 259
223 215 215 213 211 210 218 217 222 228 235 241 244 251 257 265 265 260 259 266 270 270 269 267 258 259 264 274 273 258 253 259
200 214 226 222 211 206 215 217 229 241 242 247 251 258 258 261 267 270 271 274 276 278 274 266 257 254 254 263 263 253 242 250
209 214 197 224 216 213 231 244 246 242 250 253 260 257 254 257 268 274 276 283 277 275 272 267 261 256 256 256 257 254 245 239
233 231 212 208 217 236 239 240 237 238 249 259 264 259 253 259 266 271 276 282 279 270 267 266 259 253 254 258 265 265 254 242
262 231 203 197 216 214 227 229 232 237 244 252 257 256 255 259 265 268 270 272 275 265 262 258 252 250 255 260 264 261 255 247
263 255 240 231 232 234 218 224 226 224 232 238 242 245 248 252 259 267 266 265 267 259 259 256 252 247 252 254 253 243 242 249
258 256 245 235 232 224 219 222 226 234 238 244 250 245 252 263 267 268 267 266 265 257 249 244 239 238 240 246 240 237 240 255
253 247 254 237 231 215 217 221 222 224 232 237 245 252 260 266 268 261 262 261 259 253 247 249 241 233 236 240 244 240 236 248
244 247 252 245 228 223 221 217 222 221 230 242 258 269 270 263 263 258 258 254 254 248 243 249 236 235 237 239 243 245 240 249